RYR67PW EGSS-LPPT

Flight info

Callsign RYR67PW
Flight time N/A
Altitude 33000
Route NUGBO M183 SILVA Q41 SAM M195 MARUK/N0443F350 M195 LORKU DCT BALDA DCT ABUPI DCT XAMAX
Aircraft B738/M-SDE2E3FGHIRWXY/LB1

Departure

Time 2026-05-01 14:13
Airport London Stansted Airport (EGSS)

Arrival

Time N/A
Airport Lisbon Humberto Delgado Airport (LPPT)
Time Latitude Longitude Altitude Speed Heading
2026-05-01 13:29 51.89449 0.25863 348 ft 0 kts 217°
2026-05-01 13:56 51.89452 0.25867 355 ft 3 kts 217°
2026-05-01 13:56 51.89467 0.25886 358 ft 3 kts 225°
2026-05-01 13:57 51.89478 0.25911 357 ft 3 kts 256°
2026-05-01 13:57 51.89479 0.25932 354 ft 3 kts 278°
2026-05-01 13:57 51.89474 0.25960 352 ft 0 kts 308°
2026-05-01 14:02 51.89476 0.25956 355 ft 2 kts 311°
2026-05-01 14:02 51.89505 0.25902 351 ft 10 kts 312°
2026-05-01 14:02 51.89580 0.25813 348 ft 16 kts 327°
2026-05-01 14:02 51.89591 0.25674 352 ft 14 kts 228°
2026-05-01 14:03 51.89521 0.25568 352 ft 13 kts 224°
2026-05-01 14:03 51.89454 0.25467 352 ft 13 kts 223°
2026-05-01 14:03 51.89389 0.25369 351 ft 13 kts 223°
2026-05-01 14:03 51.89325 0.25274 348 ft 12 kts 223°
2026-05-01 14:04 51.89266 0.25176 348 ft 12 kts 233°
2026-05-01 14:04 51.89219 0.25058 357 ft 13 kts 237°
2026-05-01 14:04 51.89161 0.24955 355 ft 12 kts 222°
2026-05-01 14:04 51.89120 0.24894 351 ft 13 kts 222°
2026-05-01 14:05 51.89030 0.24761 348 ft 13 kts 223°
2026-05-01 14:05 51.88965 0.24662 350 ft 13 kts 223°
2026-05-01 14:05 51.88901 0.24566 352 ft 13 kts 223°
2026-05-01 14:05 51.88834 0.24465 348 ft 14 kts 223°
2026-05-01 14:06 51.88784 0.24391 350 ft 15 kts 223°
2026-05-01 14:06 51.88705 0.24272 355 ft 15 kts 223°
2026-05-01 14:06 51.88628 0.24158 348 ft 15 kts 223°
2026-05-01 14:06 51.88555 0.24049 352 ft 14 kts 223°
2026-05-01 14:07 51.88485 0.23943 348 ft 13 kts 223°
2026-05-01 14:07 51.88419 0.23842 348 ft 13 kts 223°
2026-05-01 14:07 51.88353 0.23743 352 ft 13 kts 222°
2026-05-01 14:08 51.88213 0.23535 348 ft 14 kts 223°
2026-05-01 14:08 51.88145 0.23432 351 ft 13 kts 222°
2026-05-01 14:08 51.88076 0.23329 351 ft 13 kts 223°
2026-05-01 14:08 51.88007 0.23226 353 ft 14 kts 223°
2026-05-01 14:09 51.87932 0.23113 351 ft 14 kts 223°
2026-05-01 14:09 51.87861 0.23006 348 ft 14 kts 223°
2026-05-01 14:09 51.87794 0.22904 348 ft 13 kts 223°
2026-05-01 14:09 51.87729 0.22807 353 ft 13 kts 223°
2026-05-01 14:10 51.87665 0.22712 348 ft 12 kts 223°
2026-05-01 14:10 51.87603 0.22620 352 ft 12 kts 223°
2026-05-01 14:10 51.87542 0.22528 349 ft 13 kts 223°
2026-05-01 14:10 51.87471 0.22423 338 ft 14 kts 222°
2026-05-01 14:11 51.87409 0.22313 337 ft 13 kts 244°
2026-05-01 14:11 51.87457 0.22107 335 ft 10 kts 312°
2026-05-01 14:11 51.87495 0.22040 334 ft 7 kts 313°
2026-05-01 14:12 51.87538 0.22038 333 ft 8 kts 41°
2026-05-01 14:12 51.87623 0.22165 337 ft 42 kts 43°
2026-05-01 14:12 51.88018 0.22755 338 ft 111 kts 42°
2026-05-01 14:12 51.88734 0.23837 341 ft 168 kts 43°
2026-05-01 14:13 51.89678 0.25187 748 ft 190 kts 45°
2026-05-01 14:13 51.90689 0.26657 1505 ft 195 kts 47°
2026-05-01 14:13 51.91628 0.28104 2516 ft 189 kts 48°
2026-05-01 14:13 51.92709 0.29569 2925 ft 220 kts 30°
2026-05-01 14:14 51.94265 0.30167 3198 ft 245 kts 354°
2026-05-01 14:14 51.95868 0.29257 3732 ft 250 kts 320°
2026-05-01 14:14 51.96910 0.27066 4397 ft 245 kts 286°
2026-05-01 14:14 51.97274 0.24375 4866 ft 253 kts 275°
2026-05-01 14:15 51.97510 0.21446 5002 ft 267 kts 274°
2026-05-01 14:15 51.97756 0.18462 4995 ft 265 kts 275°
2026-05-01 14:15 51.98013 0.15498 4997 ft 266 kts 275°
2026-05-01 14:15 51.98305 0.12539 4998 ft 267 kts 276°
2026-05-01 14:16 51.98616 0.09571 5031 ft 266 kts 276°
2026-05-01 14:16 51.98913 0.06585 4981 ft 267 kts 270°
2026-05-01 14:16 51.98709 0.03648 5007 ft 260 kts 255°
2026-05-01 14:16 51.98319 0.00771 4995 ft 262 kts 255°
2026-05-01 14:17 51.97936 -0.02117 4987 ft 261 kts 255°
2026-05-01 14:17 51.97562 -0.04996 5002 ft 261 kts 255°
2026-05-01 14:17 51.97182 -0.07893 5295 ft 266 kts 255°
2026-05-01 14:17 51.96799 -0.10818 6218 ft 264 kts 255°
2026-05-01 14:18 51.96419 -0.13746 7073 ft 266 kts 254°
2026-05-01 14:18 51.96031 -0.16709 7853 ft 271 kts 254°
2026-05-01 14:18 51.95637 -0.19736 8599 ft 276 kts 254°
2026-05-01 14:18 51.95370 -0.21751 9155 ft 277 kts 252°
2026-05-01 14:19 51.94005 -0.25100 10128 ft 272 kts 213°
2026-05-01 14:19 51.92427 -0.26855 10618 ft 286 kts 212°
2026-05-01 14:19 51.90714 -0.28750 10799 ft 310 kts 212°
2026-05-01 14:19 51.88878 -0.30792 11101 ft 328 kts 212°
2026-05-01 14:20 51.86983 -0.32917 11735 ft 333 kts 213°
2026-05-01 14:20 51.83161 -0.37230 13263 ft 338 kts 213°
2026-05-01 14:20 51.81220 -0.39425 13972 ft 342 kts 213°
2026-05-01 14:21 51.79261 -0.41642 14617 ft 345 kts 213°
2026-05-01 14:21 51.77285 -0.43879 15245 ft 348 kts 212°
2026-05-01 14:21 51.75296 -0.46130 15879 ft 351 kts 212°
2026-05-01 14:22 51.71256 -0.50695 17132 ft 358 kts 212°
2026-05-01 14:22 51.69205 -0.53010 17754 ft 361 kts 212°
2026-05-01 14:22 51.67141 -0.55336 18353 ft 365 kts 212°
2026-05-01 14:22 51.65050 -0.57689 18891 ft 368 kts 212°
2026-05-01 14:23 51.62943 -0.60059 19405 ft 371 kts 212°
2026-05-01 14:23 51.60820 -0.62444 19941 ft 373 kts 212°
2026-05-01 14:23 51.58687 -0.64837 20467 ft 376 kts 212°
2026-05-01 14:23 51.56532 -0.67252 20975 ft 379 kts 212°
2026-05-01 14:24 51.54360 -0.69683 21468 ft 382 kts 212°
2026-05-01 14:24 51.52176 -0.72124 21955 ft 385 kts 212°
2026-05-01 14:24 51.49971 -0.74587 22443 ft 387 kts 212°
2026-05-01 14:24 51.47749 -0.77065 22916 ft 390 kts 212°
2026-05-01 14:25 51.45509 -0.79560 23365 ft 393 kts 212°
2026-05-01 14:25 51.43258 -0.82064 23810 ft 396 kts 212°
2026-05-01 14:25 51.40985 -0.84589 24198 ft 399 kts 212°
2026-05-01 14:25 51.38699 -0.87128 24585 ft 401 kts 212°
2026-05-01 14:26 51.36398 -0.89678 24955 ft 403 kts 212°
2026-05-01 14:26 51.31762 -0.94807 25698 ft 408 kts 212°
2026-05-01 14:26 51.29419 -0.97394 26039 ft 410 kts 212°
2026-05-01 14:27 51.27062 -0.99995 26386 ft 413 kts 212°
2026-05-01 14:27 51.24697 -1.02600 26726 ft 415 kts 212°
2026-05-01 14:27 51.22312 -1.05224 27061 ft 417 kts 212°
2026-05-01 14:28 51.17505 -1.10501 27719 ft 422 kts 212°
2026-05-01 14:28 51.15082 -1.13158 28040 ft 424 kts 212°
2026-05-01 14:28 51.12645 -1.15825 28347 ft 426 kts 212°
2026-05-01 14:28 51.10202 -1.18495 28667 ft 428 kts 212°
2026-05-01 14:29 51.07734 -1.21190 28967 ft 430 kts 212°
2026-05-01 14:29 51.05265 -1.23882 29268 ft 432 kts 212°
2026-05-01 14:30 50.97848 -1.31952 30513 ft 429 kts 212°
2026-05-01 14:30 50.95418 -1.34586 30793 ft 429 kts 212°
2026-05-01 14:30 50.92905 -1.37259 31048 ft 430 kts 212°
2026-05-01 14:31 50.87902 -1.42464 31690 ft 429 kts 211°
2026-05-01 14:31 50.85436 -1.45016 31978 ft 429 kts 212°
2026-05-01 14:31 50.82934 -1.47608 32253 ft 430 kts 212°
2026-05-01 14:31 50.80432 -1.50203 32550 ft 430 kts 212°
2026-05-01 14:32 50.77939 -1.52787 32846 ft 429 kts 212°
2026-05-01 14:32 50.75439 -1.55378 33118 ft 430 kts 212°
2026-05-01 14:32 50.72932 -1.57974 33398 ft 429 kts 212°
2026-05-01 14:32 50.70439 -1.60552 33686 ft 429 kts 212°
2026-05-01 14:33 50.67933 -1.63140 33967 ft 429 kts 212°
2026-05-01 14:33 50.65440 -1.65712 34235 ft 428 kts 212°
2026-05-01 14:33 50.62945 -1.68282 34467 ft 428 kts 212°
2026-05-01 14:33 50.60453 -1.70846 34706 ft 427 kts 212°
2026-05-01 14:34 50.57964 -1.73404 34942 ft 427 kts 212°
2026-05-01 14:34 50.55486 -1.75948 35176 ft 426 kts 212°
2026-05-01 14:34 50.52985 -1.78511 35169 ft 430 kts 212°
2026-05-01 14:35 50.47967 -1.83616 35189 ft 430 kts 212°
2026-05-01 14:35 50.42984 -1.88663 35194 ft 423 kts 212°
2026-05-01 14:36 50.38042 -1.93659 35208 ft 422 kts 212°
2026-05-01 14:36 50.33123 -1.98623 35204 ft 420 kts 212°
2026-05-01 14:37 50.28208 -2.03573 35208 ft 419 kts 212°
2026-05-01 14:37 50.23327 -2.08464 35210 ft 419 kts 212°
2026-05-01 14:38 50.18382 -2.13293 35210 ft 420 kts 211°
2026-05-01 14:38 50.13417 -2.18108 35213 ft 420 kts 211°
2026-05-01 14:39 50.08453 -2.22925 35214 ft 421 kts 211°
2026-05-01 14:39 50.03474 -2.27751 35214 ft 422 kts 211°
2026-05-01 14:40 49.98488 -2.32576 35215 ft 422 kts 211°
2026-05-01 14:40 49.93478 -2.37326 35211 ft 422 kts 207°
2026-05-01 14:41 49.88112 -2.41010 35213 ft 422 kts 202°
2026-05-01 14:41 49.82703 -2.44534 35219 ft 421 kts 202°
2026-05-01 14:42 49.77312 -2.48065 35214 ft 421 kts 203°
2026-05-01 14:42 49.71935 -2.51607 35215 ft 420 kts 203°
2026-05-01 14:43 49.66564 -2.55149 35216 ft 419 kts 203°
2026-05-01 14:43 49.61235 -2.58659 35215 ft 418 kts 203°
2026-05-01 14:44 49.55894 -2.62167 35212 ft 417 kts 203°
2026-05-01 14:44 49.47897 -2.67404 35211 ft 416 kts 203°
2026-05-01 14:45 49.39920 -2.72608 35211 ft 415 kts 203°
2026-05-01 14:46 49.34605 -2.76066 35214 ft 414 kts 203°
2026-05-01 14:46 49.26648 -2.81227 35219 ft 414 kts 203°
2026-05-01 14:47 49.21341 -2.84659 35222 ft 414 kts 203°
2026-05-01 14:48 49.13387 -2.89789 35220 ft 414 kts 203°
2026-05-01 14:48 49.05422 -2.94907 35223 ft 414 kts 203°
2026-05-01 14:49 48.94803 -3.01703 35220 ft 414 kts 204°
2026-05-01 14:50 48.85071 -3.07904 35215 ft 414 kts 204°
2026-05-01 14:51 48.77088 -3.12970 35215 ft 415 kts 204°
2026-05-01 14:52 48.69087 -3.18031 35212 ft 416 kts 204°
2026-05-01 14:53 48.61067 -3.23086 35206 ft 416 kts 204°
2026-05-01 14:53 48.55724 -3.26444 35205 ft 416 kts 204°
2026-05-01 14:54 48.50376 -3.29798 35204 ft 416 kts 204°
2026-05-01 14:54 48.45037 -3.33138 35196 ft 416 kts 204°
2026-05-01 14:55 48.39697 -3.36471 35196 ft 415 kts 204°
2026-05-01 14:55 48.34364 -3.39792 35196 ft 414 kts 204°
2026-05-01 14:56 48.29046 -3.43097 35189 ft 413 kts 204°
2026-05-01 14:56 48.23730 -3.46393 35190 ft 413 kts 204°
2026-05-01 14:57 48.18425 -3.49674 35195 ft 412 kts 204°
2026-05-01 14:57 48.10491 -3.54568 35191 ft 411 kts 204°
2026-05-01 14:58 48.05209 -3.57818 35202 ft 410 kts 204°
2026-05-01 14:58 47.99971 -3.61033 35202 ft 409 kts 204°
2026-05-01 14:59 47.94704 -3.64258 35205 ft 409 kts 204°
2026-05-01 14:59 47.89448 -3.67471 35208 ft 408 kts 204°
2026-05-01 15:00 47.81564 -3.72275 35207 ft 408 kts 204°
2026-05-01 15:01 47.76302 -3.75473 35208 ft 408 kts 204°
2026-05-01 15:01 47.71047 -3.78660 35214 ft 408 kts 204°
2026-05-01 15:02 47.65787 -3.81842 35210 ft 408 kts 204°
2026-05-01 15:02 47.60535 -3.85013 35215 ft 408 kts 204°
2026-05-01 15:03 47.55276 -3.88182 35218 ft 408 kts 204°
2026-05-01 15:03 47.50027 -3.91337 35219 ft 407 kts 204°
2026-05-01 15:04 47.44773 -3.94488 35218 ft 407 kts 204°
2026-05-01 15:04 47.39520 -3.97633 35222 ft 407 kts 204°
2026-05-01 15:05 47.34277 -4.00764 35221 ft 407 kts 204°
2026-05-01 15:05 47.29029 -4.03892 35224 ft 406 kts 204°
2026-05-01 15:06 47.23791 -4.07007 35223 ft 406 kts 204°
2026-05-01 15:06 47.18548 -4.10118 35225 ft 406 kts 204°
2026-05-01 15:07 47.13314 -4.13217 35226 ft 406 kts 204°
2026-05-01 15:07 47.08068 -4.16318 35224 ft 406 kts 203°
2026-05-01 15:08 47.02837 -4.19402 35226 ft 405 kts 203°
2026-05-01 15:08 46.97607 -4.22479 35226 ft 405 kts 203°
2026-05-01 15:09 46.92371 -4.25554 35227 ft 405 kts 203°
2026-05-01 15:09 46.87173 -4.28599 35223 ft 405 kts 203°
2026-05-01 15:10 46.81948 -4.31654 35222 ft 405 kts 203°
2026-05-01 15:10 46.74110 -4.36225 35221 ft 404 kts 203°
2026-05-01 15:11 46.66271 -4.40782 35223 ft 404 kts 203°
2026-05-01 15:12 46.61056 -4.43806 35213 ft 404 kts 203°
2026-05-01 15:12 46.53235 -4.48329 35214 ft 403 kts 203°
2026-05-01 15:14 46.40210 -4.55831 35206 ft 402 kts 202°
2026-05-01 15:14 46.32405 -4.60307 35209 ft 402 kts 202°
2026-05-01 15:15 46.21998 -4.66255 35204 ft 402 kts 202°
2026-05-01 15:16 46.11580 -4.72185 35200 ft 402 kts 202°
2026-05-01 15:18 45.98470 -4.79614 35622 ft 407 kts 202°
2026-05-01 15:18 45.95871 -4.81081 35871 ft 406 kts 202°
2026-05-01 15:19 45.87956 -4.85543 36349 ft 409 kts 202°
2026-05-01 15:19 45.82660 -4.88520 36729 ft 409 kts 202°
2026-05-01 15:19 45.80011 -4.90008 36904 ft 409 kts 202°
2026-05-01 15:20 45.74716 -4.92975 37174 ft 409 kts 202°
2026-05-01 15:20 45.72056 -4.94464 37176 ft 411 kts 202°
2026-05-01 15:21 45.66726 -4.97443 37185 ft 410 kts 202°
2026-05-01 15:21 45.61422 -5.00400 37180 ft 408 kts 202°
2026-05-01 15:22 45.53503 -5.04805 37177 ft 406 kts 202°
2026-05-01 15:22 45.48237 -5.07727 37178 ft 405 kts 202°
2026-05-01 15:23 45.42978 -5.10639 37176 ft 405 kts 202°
2026-05-01 15:23 45.37728 -5.13540 37177 ft 405 kts 201°
2026-05-01 15:24 45.32469 -5.16441 37174 ft 405 kts 202°
2026-05-01 15:24 45.27209 -5.19336 37171 ft 406 kts 201°
2026-05-01 15:25 45.21933 -5.22235 37172 ft 407 kts 201°
2026-05-01 15:25 45.16652 -5.25130 37168 ft 408 kts 202°
2026-05-01 15:26 45.11354 -5.28029 37162 ft 408 kts 202°
2026-05-01 15:26 45.06046 -5.30927 37163 ft 409 kts 201°
2026-05-01 15:27 45.00737 -5.33821 37166 ft 409 kts 201°
2026-05-01 15:28 44.92788 -5.38142 37162 ft 410 kts 201°
2026-05-01 15:28 44.87461 -5.41031 37158 ft 410 kts 201°
2026-05-01 15:29 44.79478 -5.45349 37159 ft 410 kts 201°
2026-05-01 15:30 44.69705 -5.50620 37159 ft 409 kts 202°
2026-05-01 15:31 44.53074 -5.60090 37154 ft 407 kts 205°
2026-05-01 15:32 44.42725 -5.66571 37151 ft 407 kts 204°
2026-05-01 15:34 44.27179 -5.76124 37149 ft 407 kts 204°